TimeEDT,TemperatureF,Dew PointF,Humidity,Sea Level PressureIn,VisibilityMPH,Wind Direction,Wind SpeedMPH,Gust SpeedMPH,PrecipitationIn,Events,Conditions,WindDirDegrees,DateUTC
12:15 AM,37.4,28.0,69,30.34,10.0,SW,3.5,-,N/A,,Clear,230,2013-04-26 04:15:00
12:34 AM,38.3,28.0,67,30.34,10.0,SW,3.5,-,N/A,,Clear,220,2013-04-26 04:34:00
12:55 AM,37.4,28.4,70,30.35,10.0,SW,3.5,-,N/A,,Clear,220,2013-04-26 04:55:00
1:15 AM,36.9,28.4,71,30.35,10.0,Calm,Calm,-,N/A,,Clear,0,2013-04-26 05:15:00
1:35 AM,35.8,28.2,74,30.35,10.0,SSW,3.5,-,N/A,,Clear,210,2013-04-26 05:35:00
1:55 AM,35.8,28.4,75,30.36,10.0,SW,3.5,-,N/A,,Clear,220,2013-04-26 05:55:00
2:15 AM,35.6,28.4,75,30.36,10.0,Calm,Calm,-,N/A,,Clear,0,2013-04-26 06:15:00
2:35 AM,34.9,28.4,77,30.36,10.0,SSW,3.5,-,N/A,,Clear,210,2013-04-26 06:35:00
3:15 AM,35.6,28.6,76,30.35,10.0,Calm,Calm,-,N/A,,Clear,0,2013-04-26 07:15:00
3:35 AM,33.3,27.0,78,30.35,10.0,Calm,Calm,-,N/A,,Clear,0,2013-04-26 07:35:00
3:55 AM,33.1,28.2,82,30.36,10.0,Calm,Calm,-,N/A,,Clear,0,2013-04-26 07:55:00
4:15 AM,32.2,28.4,86,30.36,10.0,Calm,Calm,-,N/A,,Clear,0,2013-04-26 08:15:00
4:35 AM,31.6,28.4,88,30.36,10.0,Calm,Calm,-,N/A,,Clear,0,2013-04-26 08:35:00
4:55 AM,31.5,28.9,90,30.37,10.0,Calm,Calm,-,N/A,,Clear,0,2013-04-26 08:55:00
5:15 AM,30.6,28.2,91,30.37,10.0,Calm,Calm,-,N/A,,Clear,0,2013-04-26 09:15:00
5:35 AM,30.0,28.0,92,30.37,10.0,Calm,Calm,-,N/A,,Clear,0,2013-04-26 09:35:00
5:55 AM,30.6,28.0,90,30.38,10.0,Calm,Calm,-,N/A,,Clear,0,2013-04-26 09:55:00
6:14 AM,31.6,29.1,90,30.39,10.0,Calm,Calm,-,N/A,,Clear,0,2013-04-26 10:14:00
6:35 AM,29.7,27.7,92,30.39,10.0,Calm,Calm,-,N/A,,Clear,0,2013-04-26 10:35:00
6:55 AM,30.6,28.6,92,30.39,10.0,SE,4.6,-,N/A,,Clear,130,2013-04-26 10:55:00
7:15 AM,31.5,29.7,93,30.40,10.0,SSW,3.5,-,N/A,,Clear,200,2013-04-26 11:15:00
7:35 AM,32.0,30.9,96,30.40,10.0,Calm,Calm,-,N/A,,Clear,0,2013-04-26 11:35:00
7:55 AM,35.1,32.2,89,30.41,10.0,Calm,Calm,-,N/A,,Clear,0,2013-04-26 11:55:00
8:15 AM,36.9,33.3,87,30.41,10.0,Calm,Calm,-,N/A,,Clear,0,2013-04-26 12:15:00
8:35 AM,39.6,34.7,83,30.41,7.0,Calm,Calm,-,N/A,,Clear,0,2013-04-26 12:35:00
8:54 AM,42.6,34.2,72,30.42,10.0,South,3.5,-,N/A,,Clear,170,2013-04-26 12:54:00
9:15 AM,45.1,32.7,62,30.42,10.0,South,4.6,-,N/A,,Clear,180,2013-04-26 13:15:00
9:35 AM,46.6,32.0,57,30.43,10.0,South,6.9,-,N/A,,Clear,180,2013-04-26 13:35:00
9:55 AM,47.3,32.5,57,30.43,10.0,SW,5.8,-,N/A,,Clear,220,2013-04-26 13:55:00
10:15 AM,48.6,31.8,52,30.43,10.0,SSW,9.2,-,N/A,,Clear,200,2013-04-26 14:15:00
10:35 AM,49.6,32.2,51,30.43,10.0,SW,9.2,-,N/A,,Clear,230,2013-04-26 14:35:00
10:55 AM,50.4,32.0,49,30.43,10.0,SSW,11.5,-,N/A,,Clear,200,2013-04-26 14:55:00
11:15 AM,51.1,32.4,49,30.42,10.0,South,9.2,16.1,N/A,,Clear,170,2013-04-26 15:15:00
11:35 AM,51.8,33.1,49,30.42,10.0,SSE,11.5,-,N/A,,Clear,160,2013-04-26 15:35:00
11:55 AM,52.0,31.8,46,30.42,10.0,SSW,6.9,-,N/A,,Clear,210,2013-04-26 15:55:00
12:15 PM,52.9,32.4,46,30.43,10.0,South,10.4,-,N/A,,Clear,190,2013-04-26 16:15:00
12:35 PM,53.6,33.8,47,30.41,10.0,SSE,12.7,18.4,N/A,,Clear,160,2013-04-26 16:35:00
12:55 PM,54.1,33.8,46,30.41,10.0,SSW,10.4,16.1,N/A,,Clear,200,2013-04-26 16:55:00
1:15 PM,54.0,33.6,46,30.40,10.0,South,13.8,17.3,N/A,,Clear,170,2013-04-26 17:15:00
1:35 PM,55.0,33.3,44,30.39,10.0,South,11.5,-,N/A,,Clear,180,2013-04-26 17:35:00
1:55 PM,55.9,33.8,43,30.39,10.0,South,12.7,18.4,N/A,,Clear,190,2013-04-26 17:55:00
2:15 PM,56.1,35.8,46,30.38,10.0,South,9.2,-,N/A,,Clear,190,2013-04-26 18:15:00
2:34 PM,56.3,33.4,42,30.38,10.0,SSW,10.4,-,N/A,,Clear,200,2013-04-26 18:34:00
2:55 PM,56.8,34.0,42,30.37,10.0,South,10.4,17.3,N/A,,Clear,180,2013-04-26 18:55:00
3:15 PM,57.0,35.6,45,30.36,10.0,SSE,15.0,21.9,N/A,,Clear,150,2013-04-26 19:15:00
3:34 PM,57.2,34.2,42,30.35,10.0,SSE,13.8,21.9,N/A,,Clear,160,2013-04-26 19:34:00
3:55 PM,58.1,33.8,40,30.35,10.0,SSW,11.5,-,N/A,,Clear,200,2013-04-26 19:55:00
4:15 PM,58.3,35.2,42,30.34,10.0,South,11.5,18.4,N/A,,Clear,170,2013-04-26 20:15:00
4:35 PM,58.5,34.9,41,30.33,10.0,South,15.0,18.4,N/A,,Clear,180,2013-04-26 20:35:00
4:55 PM,58.3,34.9,41,30.32,10.0,South,13.8,19.6,N/A,,Clear,190,2013-04-26 20:55:00
5:15 PM,58.6,34.7,41,30.33,10.0,South,10.4,18.4,N/A,,Clear,190,2013-04-26 21:15:00
5:35 PM,58.5,34.2,40,30.33,10.0,South,10.4,-,N/A,,Clear,170,2013-04-26 21:35:00
5:55 PM,58.1,33.8,40,30.33,10.0,South,9.2,-,N/A,,Clear,170,2013-04-26 21:55:00
6:15 PM,58.3,34.7,41,30.33,10.0,South,11.5,20.7,N/A,,Clear,170,2013-04-26 22:15:00
6:35 PM,58.5,35.2,42,30.33,10.0,South,12.7,-,N/A,,Clear,170,2013-04-26 22:35:00
6:55 PM,58.3,33.6,39,30.33,10.0,SSW,12.7,18.4,N/A,,Clear,200,2013-04-26 22:55:00
7:15 PM,57.6,33.6,41,30.32,10.0,SSW,11.5,17.3,N/A,,Clear,200,2013-04-26 23:15:00
7:35 PM,56.7,33.8,42,30.32,10.0,South,10.4,18.4,N/A,,Clear,190,2013-04-26 23:35:00
7:55 PM,55.9,33.6,43,30.32,10.0,South,5.8,-,N/A,,Clear,180,2013-04-26 23:55:00
8:15 PM,55.8,34.2,44,30.32,10.0,South,8.1,-,N/A,,Clear,190,2013-04-27 00:15:00
8:35 PM,55.4,34.0,44,30.32,10.0,SSW,8.1,-,N/A,,Scattered Clouds,200,2013-04-27 00:35:00
8:55 PM,54.1,34.5,48,30.33,10.0,South,5.8,-,N/A,,Scattered Clouds,190,2013-04-27 00:55:00
9:15 PM,52.7,34.7,50,30.33,10.0,South,5.8,-,N/A,,Clear,180,2013-04-27 01:15:00
9:35 PM,52.5,34.3,50,30.34,10.0,South,6.9,-,N/A,,Clear,180,2013-04-27 01:35:00
9:54 PM,51.6,34.2,51,30.34,10.0,South,5.8,-,N/A,,Clear,180,2013-04-27 01:54:00
10:15 PM,51.1,34.2,52,30.35,10.0,South,5.8,-,N/A,,Clear,180,2013-04-27 02:15:00
10:35 PM,50.4,34.2,54,30.35,10.0,South,5.8,-,N/A,,Clear,180,2013-04-27 02:35:00
10:55 PM,50.5,34.3,54,30.35,10.0,South,6.9,-,N/A,,Clear,170,2013-04-27 02:55:00
11:15 PM,48.7,34.7,58,30.35,10.0,SSE,6.9,-,N/A,,Clear,160,2013-04-27 03:15:00
11:34 PM,46.9,34.9,63,30.34,10.0,SSE,5.8,-,N/A,,Clear,150,2013-04-27 03:34:00
11:55 PM,46.9,36.5,67,30.35,10.0,SSE,5.8,-,N/A,,Clear,160,2013-04-27 03:55:00